Regional Weather Roundup
Issued by NWS Charleston, SC

Current Version | Previous Version | Graphics & Text | Print | Product List | Glossary On
Versions: 1 2 3 4 5 6 7 8 9 10 11 12 13 14 15 16 17 18 19 20 21 22 23 24 25 26 27 28 29 30 31 32 33 34 35 36 37 38 39 40 41 42 43 44 45 46 47 48 49 50
000 ASUS42 KCHS 040212 RWRCHS REGIONAL WEATHER ROUNDUP NATIONAL WEATHER SERVICE CHARLESTON SC 1000 PM EDT THU SEP 03 2015 NOTE: "FAIR" INDICATES FEW OR NO CLOUDS BELOW 12,000 FEET WITH NO SIGNIFICANT WEATHER AND/OR OBSTRUCTIONS TO VISIBILITY. NOT ALL STATIONS ARE QUALITY CONTROLLED BY THE NATIONAL WEATHER SERVICE. USE DATA WITH CAUTION...ESPECIALLY DEWPOINT OBSERVATIONS. SCZ027-030-031-034>040-042>050-040300- ...SOUTHEAST SOUTH CAROLINA... CITY SKY/WX TMP DP RH WIND PRES REMARKS N CHARLESTON MOCLDY 79 74 84 SW7 29.91S WATERFRONT PRK N/A 81 77 88 VRB3 29.88S MOUNT PLEASANT FAIR 79 75 89 S3 29.91S JOHNS ISLAND FAIR 79 77 94 CALM 29.91S PINOPOLIS N/A 84 75 74 CALM 29.82S HX 92 MONCKS CORNER FAIR 79 75 89 CALM 29.90F SUMMERVILLE FAIR 77 77 100 S3 29.92S BEAUFORT MCAS MOCLDY 80 76 87 CALM 29.92R BEAUFORT ARPT FAIR 79 77 94 CALM 29.91S HILTON HEAD IS MOCLDY 77 77 100 CALM 29.93R WALTERBORO MOCLDY 79 75 89 E3 29.93S ALLENDALE FAIR 81 77 89 CALM 29.92R ...SOUTHERN MIDLANDS AND PEE DEE... CITY SKY/WX TMP DP RH WIND PRES REMARKS GEORGETOWN NOT AVBL KINGSTREE NOT AVBL ORANGEBURG CLOUDY 78 74 87 NW3 29.93R BARNWELL FAIR 81 75 83 CALM 29.93R AIKEN FAIR 77 70 78 CALM 29.97R MANNING FAIR 77 72 83 CALM 29.91S COLUMBIA MOCLDY 79 73 82 W7 29.91S SUMTER MOCLDY 79 73 80 SE7 29.89S FLORENCE MOCLDY 79 69 71 SE5 29.91R MYRTLE BEACH CLEAR 75 70 83 CALM 29.92S N MYRTLE BEACH CLOUDY 75 71 87 W3 29.90R $$ GAZ063-065-086>088-099>101-113>116-118-119-134>141-150-040300- ...SOUTHEAST GEORGIA... CITY SKY/WX TMP DP RH WIND PRES REMARKS SAVANNAH ARPT MOCLDY 80 76 87 S7 29.92R HUNTER AAF MOCLDY 80 80 100 S2 29.90R FORT STEWART CLOUDY 80 78 92 CALM 29.90R STATESBORO MOCLDY 78 78 100 CALM 29.92R SYLVANIA NOT AVBL CLAXTON NOT AVBL ...CSRA...CENTRAL AND FAR SOUTHEAST GEORGIA... CITY SKY/WX TMP DP RH WIND PRES REMARKS THOMSON PTCLDY 80 79 98 CALM 29.97S AUGUSTA-BUSH PTCLDY 77 75 93 CALM 29.91R AUGUSTA-DANIEL PTCLDY 83 74 74 CALM 29.93R SWAINSBORO FAIR 79 75 89 CALM 29.94R VIDALIA PTCLDY 79 77 94 CALM 29.93R EASTMAN FOG 77 77 100 CALM 29.94S VSB 1 HAZLEHURST FAIR 79 79 100 CALM 29.91S ALMA MOCLDY 78 77 96 CALM 29.91S WAYCROSS MOCLDY 81 81 98 CALM 29.92R HX 92 JESUP FAIR 81 79 94 CALM 29.92R BAXLEY FAIR 79 79 100 CALM 29.91S BRUNSWICK CLOUDY 77 77 100 CALM 29.93R SAINT SIMONS CLOUDY 78 77 96 CALM 29.92R $$ SCZ027-028-034-036>038-045-046-048>050-GAZ119-141-040300- ...LAKE AND SUPPLEMENTAL COASTAL OBSERVATIONS... STATION/POSITION TIME TEMP WIND PRES WAVE SWELL AIR SEA DIR/SP/G HT/PER HT/PER/DIR (UTC) (F) (DEG/KT/KT) (MB) (FT/S) (FT/S/D) UPR LAKE MARION NOT AVBL WINYAH BAY 0045 77 300/ 2 1012.0 LAKE MURRAY 0100 84 190/ 4/ 4 1012.2R ACE BASIN NERRS NOT AVBL FORT PULASKI 0100 80 83 80/ 1/ 2 1013.3R SAPELO ISLAND 0100 80 CALM 1013.0R $$ ANZ835-935-AMZ111-154-330-350-352-354-370-450-454-472-040300- ...C-MAN AND BUOY OBSERVATIONS... STATION/POSITION TIME TEMP WIND PRES WAVE SWELL AIR SEA DIR/SP/G HT/PER HT/PER/DIR (UTC) (F) (DEG/KT/KT) (MB) (FT/S) (FT/S/D) BUOY 41004 0150 81 84 200/ 6/ 8 1012.3F 1/ 8 2/ 8 BUOY 41008 0150 81 84 70/ 4/ 6 1013.2R 2/ 8 2/110/ 8 FOLLY BEACH CMAN 0100 81 170/ 5/ 6 1013.0R CAPERS NEARSHORE 0108 82 230/ 8/ 10 1012.7F FRIPP NEARSHORE 0100 82 150/ 6/ 8 1012.6R STATION/POSITION TIME TEMP WIND PRES WAVE SWELL AIR SEA DIR/SP/G HT/PER HT/PER/DIR (UTC) (F) (DEG/KT/KT) (MB) (FT/S) (FT/S/D) 5E ST. MARYS GA 0121 85 N/A 1/13 FRYING PAN BUOY 0150 81 81 270/ 6/ 8 1012.9R 2/ 4 2/140/ 8 BUOY 41025 0150 81 85 280/ 8/ 8 1012.6R 1/12 2/ 60/12 CAPE LOOKOUT NC 0100 79 260/ 4/ 5 1012.2R BUOY 41002 0150 83 84 310/ 6/ 8 1012.9R 2/12 2/ 20/12 BUOY 41010 0120 84 86 240/ 8/ 12 1013.3R ST AUGUSTINE FL 0200 83 85 100/ 3/ 3 1014.4R $$

USA.gov is the U.S. government's official web portal to all federal, state and local government web resources and services.